EWG19J EDDM-LEPA

Flight info

Callsign EWG19J
Flight time 2h 9m
Altitude 37000
Route TURBU7S TURBU Y107 TOBSO DCT BAKOR DCT SUMIR DCT MISPO DCT PIDAD DCT TALEP DCT RARQU DCT BALEN UT250 RIXOT
Aircraft A320/M-SDE3FGHIRWY/LB1

Departure

Time 2026-05-07 15:46
Airport Munich Airport (EDDM)

Arrival

Time 2026-05-07 17:55
Airport Palma de Mallorca Airport (LEPA)
Time Latitude Longitude Altitude Speed Heading
2026-05-07 15:11 48.35369 11.79766 1458 ft 0 kts 83°
2026-05-07 15:37 48.35367 11.79734 1465 ft 4 kts 88°
2026-05-07 15:37 48.35367 11.79693 1461 ft 4 kts 95°
2026-05-07 15:38 48.35371 11.79653 1459 ft 4 kts 105°
2026-05-07 15:38 48.35381 11.79618 1467 ft 4 kts 131°
2026-05-07 15:38 48.35396 11.79602 1462 ft 0 kts 173°
2026-05-07 15:41 48.35355 11.79609 1467 ft 18 kts 173°
2026-05-07 15:41 48.35231 11.79630 1465 ft 17 kts 173°
2026-05-07 15:41 48.35120 11.79649 1467 ft 15 kts 173°
2026-05-07 15:42 48.35022 11.79665 1467 ft 13 kts 173°
2026-05-07 15:42 48.34936 11.79680 1458 ft 12 kts 173°
2026-05-07 15:42 48.34862 11.79692 1461 ft 11 kts 173°
2026-05-07 15:42 48.34806 11.79763 1463 ft 11 kts 92°
2026-05-07 15:43 48.34815 11.79898 1467 ft 15 kts 84°
2026-05-07 15:43 48.34827 11.80051 1461 ft 14 kts 84°
2026-05-07 15:43 48.34800 11.80175 1458 ft 12 kts 128°
2026-05-07 15:43 48.34742 11.80240 1463 ft 10 kts 161°
2026-05-07 15:44 48.34682 11.80251 1464 ft 8 kts 175°
2026-05-07 15:44 48.34627 11.80260 1459 ft 10 kts 173°
2026-05-07 15:44 48.34526 11.80278 1459 ft 15 kts 173°
2026-05-07 15:44 48.34461 11.80227 1466 ft 9 kts 246°
2026-05-07 15:45 48.34458 11.80203 1469 ft 0 kts 263°
2026-05-07 15:45 48.34458 11.80199 1469 ft 3 kts 263°
2026-05-07 15:45 48.34412 11.79588 1463 ft 90 kts 264°
2026-05-07 15:46 48.34238 11.77279 1472 ft 170 kts 265°
2026-05-07 15:46 48.34083 11.75513 2101 ft 165 kts 265°
2026-05-07 15:46 48.33941 11.73820 2831 ft 167 kts 265°
2026-05-07 15:47 48.33574 11.72080 3162 ft 191 kts 237°
2026-05-07 15:47 48.32418 11.70915 3424 ft 217 kts 193°
2026-05-07 15:47 48.30864 11.70772 3947 ft 227 kts 184°
2026-05-07 15:47 48.29274 11.70886 4689 ft 231 kts 169°
2026-05-07 15:48 48.27737 11.71759 5222 ft 248 kts 150°
2026-05-07 15:48 48.26233 11.73286 5562 ft 272 kts 147°
2026-05-07 15:48 48.24642 11.74929 6223 ft 281 kts 147°
2026-05-07 15:48 48.23028 11.76585 7020 ft 284 kts 148°
2026-05-07 15:49 48.21383 11.78262 7826 ft 287 kts 148°
2026-05-07 15:49 48.19718 11.79949 8630 ft 290 kts 149°
2026-05-07 15:49 48.18004 11.81541 9429 ft 291 kts 157°
2026-05-07 15:49 48.16111 11.82616 10204 ft 291 kts 165°
2026-05-07 15:50 48.14104 11.83600 10448 ft 314 kts 165°
2026-05-07 15:50 48.11951 11.84660 10713 ft 334 kts 165°
2026-05-07 15:50 48.09747 11.85756 11294 ft 341 kts 165°
2026-05-07 15:50 48.07478 11.86890 11964 ft 345 kts 165°
2026-05-07 15:51 48.05181 11.88039 12662 ft 349 kts 165°
2026-05-07 15:51 48.02863 11.89194 13348 ft 352 kts 165°
2026-05-07 15:51 48.00569 11.90332 13998 ft 356 kts 165°
2026-05-07 15:51 47.98199 11.91502 14586 ft 360 kts 165°
2026-05-07 15:52 47.95807 11.92681 15165 ft 363 kts 165°
2026-05-07 15:52 47.93393 11.93866 15736 ft 367 kts 166°
2026-05-07 15:52 47.90898 11.94680 16332 ft 366 kts 176°
2026-05-07 15:52 47.88357 11.94825 16910 ft 367 kts 184°
2026-05-07 15:53 47.85792 11.94777 17485 ft 370 kts 184°
2026-05-07 15:53 47.83206 11.94721 18056 ft 373 kts 184°
2026-05-07 15:53 47.80585 11.94664 18571 ft 377 kts 184°
2026-05-07 15:53 47.77986 11.94609 19063 ft 380 kts 184°
2026-05-07 15:54 47.75331 11.94559 19564 ft 383 kts 183°
2026-05-07 15:54 47.72640 11.94510 20068 ft 387 kts 183°
2026-05-07 15:54 47.69938 11.94462 20576 ft 390 kts 183°
2026-05-07 15:54 47.67211 11.94417 21028 ft 393 kts 183°
2026-05-07 15:55 47.64491 11.94373 21510 ft 396 kts 183°
2026-05-07 15:55 47.61722 11.94326 22006 ft 399 kts 183°
2026-05-07 15:55 47.58929 11.94275 22454 ft 403 kts 183°
2026-05-07 15:55 47.56089 11.94224 22926 ft 406 kts 183°
2026-05-07 15:56 47.53261 11.94178 23393 ft 409 kts 182°
2026-05-07 15:56 47.50433 11.94135 23801 ft 412 kts 182°
2026-05-07 15:56 47.47558 11.94089 24201 ft 414 kts 183°
2026-05-07 15:56 47.44673 11.94039 24604 ft 415 kts 183°
2026-05-07 15:57 47.41791 11.93762 25000 ft 415 kts 190°
2026-05-07 15:57 47.38927 11.93182 25387 ft 416 kts 190°
2026-05-07 15:57 47.36046 11.92597 25755 ft 417 kts 190°
2026-05-07 15:57 47.33167 11.92013 26138 ft 419 kts 190°
2026-05-07 15:58 47.30275 11.91431 26509 ft 420 kts 190°
2026-05-07 15:58 47.27377 11.90856 26876 ft 422 kts 189°
2026-05-07 15:58 47.24459 11.90280 27238 ft 423 kts 189°
2026-05-07 15:58 47.21523 11.89700 27603 ft 424 kts 189°
2026-05-07 15:59 47.18623 11.89127 27948 ft 426 kts 189°
2026-05-07 15:59 47.15675 11.88543 28281 ft 427 kts 190°
2026-05-07 15:59 47.12722 11.87959 28592 ft 429 kts 190°
2026-05-07 15:59 47.09752 11.87374 28897 ft 431 kts 190°
2026-05-07 16:00 47.06776 11.86787 29203 ft 432 kts 190°
2026-05-07 16:00 47.03812 11.86204 29527 ft 433 kts 190°
2026-05-07 16:00 47.00802 11.85582 29818 ft 434 kts 191°
2026-05-07 16:00 46.97828 11.84795 30082 ft 434 kts 194°
2026-05-07 16:01 46.94864 11.83859 30266 ft 436 kts 195°
2026-05-07 16:01 46.91935 11.82855 30431 ft 437 kts 196°
2026-05-07 16:01 46.88968 11.81820 30640 ft 439 kts 196°
2026-05-07 16:01 46.85984 11.80803 30836 ft 440 kts 196°
2026-05-07 16:02 46.82995 11.79817 31140 ft 440 kts 196°
2026-05-07 16:02 46.80003 11.78854 31464 ft 438 kts 196°
2026-05-07 16:02 46.77024 11.77914 31726 ft 437 kts 197°
2026-05-07 16:02 46.74052 11.76985 32011 ft 437 kts 197°
2026-05-07 16:03 46.71103 11.76065 32244 ft 437 kts 197°
2026-05-07 16:03 46.68121 11.75134 32508 ft 437 kts 197°
2026-05-07 16:03 46.65152 11.74205 32804 ft 436 kts 197°
2026-05-07 16:03 46.62250 11.73039 33106 ft 430 kts 205°
2026-05-07 16:04 46.59551 11.71241 33349 ft 423 kts 214°
2026-05-07 16:04 46.57116 11.68870 33628 ft 419 kts 221°
2026-05-07 16:04 46.54780 11.66361 33878 ft 417 kts 220°
2026-05-07 16:04 46.52439 11.63874 34115 ft 417 kts 220°
2026-05-07 16:05 46.50094 11.61398 34348 ft 416 kts 220°
2026-05-07 16:05 46.47747 11.58929 34574 ft 416 kts 220°
2026-05-07 16:05 46.45404 11.56466 34782 ft 416 kts 220°
2026-05-07 16:05 46.43059 11.54000 34990 ft 416 kts 220°
2026-05-07 16:06 46.40749 11.51569 35178 ft 416 kts 220°
2026-05-07 16:06 46.38407 11.49103 35388 ft 415 kts 220°
2026-05-07 16:06 46.36077 11.46654 35624 ft 414 kts 220°
2026-05-07 16:06 46.33742 11.44205 35824 ft 413 kts 220°
2026-05-07 16:07 46.31419 11.41770 36012 ft 413 kts 220°
2026-05-07 16:07 46.29089 11.39332 36197 ft 413 kts 220°
2026-05-07 16:07 46.26759 11.36897 36366 ft 413 kts 220°
2026-05-07 16:07 46.24432 11.34456 36532 ft 413 kts 220°
2026-05-07 16:08 46.22114 11.31999 36701 ft 413 kts 220°
2026-05-07 16:08 46.19823 11.29559 36848 ft 413 kts 220°
2026-05-07 16:08 46.17515 11.27092 36997 ft 413 kts 220°
2026-05-07 16:09 46.12880 11.22147 37041 ft 413 kts 220°
2026-05-07 16:09 46.08271 11.17276 37057 ft 413 kts 220°
2026-05-07 16:10 46.03623 11.12380 37043 ft 414 kts 220°
2026-05-07 16:10 45.98966 11.07483 37033 ft 412 kts 220°
2026-05-07 16:11 45.94365 11.02645 37012 ft 412 kts 220°
2026-05-07 16:11 45.89732 10.97779 37015 ft 413 kts 220°
2026-05-07 16:12 45.85088 10.92917 37001 ft 412 kts 220°
2026-05-07 16:12 45.80470 10.88097 36982 ft 412 kts 220°
2026-05-07 16:13 45.75818 10.83257 36995 ft 412 kts 220°
2026-05-07 16:13 45.71175 10.78429 36985 ft 411 kts 220°
2026-05-07 16:14 45.66569 10.73641 36994 ft 411 kts 220°
2026-05-07 16:14 45.61956 10.68861 36983 ft 410 kts 220°
2026-05-07 16:15 45.57332 10.64088 36982 ft 409 kts 220°
2026-05-07 16:15 45.52708 10.59318 36984 ft 409 kts 220°
2026-05-07 16:16 45.48110 10.54581 36981 ft 409 kts 220°
2026-05-07 16:16 45.43480 10.49830 36990 ft 409 kts 219°
2026-05-07 16:17 45.38887 10.45126 36994 ft 408 kts 219°
2026-05-07 16:17 45.34275 10.40407 36990 ft 408 kts 219°
2026-05-07 16:18 45.29683 10.35708 36962 ft 408 kts 219°
2026-05-07 16:18 45.25070 10.31017 36952 ft 407 kts 219°
2026-05-07 16:19 45.20455 10.26334 36965 ft 406 kts 219°
2026-05-07 16:19 45.15857 10.21667 36976 ft 406 kts 219°
2026-05-07 16:20 45.11260 10.17015 36955 ft 406 kts 219°
2026-05-07 16:20 45.06678 10.12387 36971 ft 406 kts 219°
2026-05-07 16:21 45.02067 10.07740 36975 ft 406 kts 219°
2026-05-07 16:21 44.97496 10.03136 36983 ft 405 kts 219°
2026-05-07 16:22 44.92898 9.98498 36976 ft 405 kts 219°
2026-05-07 16:22 44.88341 9.93905 36987 ft 405 kts 219°
2026-05-07 16:23 44.83744 9.89295 36989 ft 404 kts 219°
2026-05-07 16:23 44.79148 9.84695 36989 ft 404 kts 219°
2026-05-07 16:24 44.74590 9.80146 36980 ft 404 kts 219°
2026-05-07 16:24 44.70008 9.75577 36988 ft 403 kts 219°
2026-05-07 16:25 44.65460 9.71036 36992 ft 402 kts 219°
2026-05-07 16:25 44.60888 9.66485 36997 ft 402 kts 219°
2026-05-07 16:26 44.56311 9.61952 36990 ft 402 kts 219°
2026-05-07 16:26 44.51731 9.57426 36993 ft 402 kts 219°
2026-05-07 16:27 44.47186 9.52939 36998 ft 401 kts 219°
2026-05-07 16:27 44.42609 9.48433 37001 ft 401 kts 219°
2026-05-07 16:28 44.38066 9.43957 37009 ft 401 kts 219°
2026-05-07 16:28 44.33498 9.39456 37008 ft 401 kts 219°
2026-05-07 16:29 44.28910 9.34967 37010 ft 401 kts 219°
2026-05-07 16:29 44.24332 9.30498 37010 ft 401 kts 218°
2026-05-07 16:30 44.19784 9.26064 37006 ft 400 kts 219°
2026-05-07 16:30 44.15205 9.21603 37010 ft 400 kts 219°
2026-05-07 16:31 44.10671 9.17187 37008 ft 399 kts 219°
2026-05-07 16:31 44.06103 9.12751 37008 ft 399 kts 218°
2026-05-07 16:32 44.01568 9.08358 37010 ft 398 kts 218°
2026-05-07 16:32 43.97016 9.03953 37009 ft 398 kts 218°
2026-05-07 16:33 43.92483 8.99579 37007 ft 398 kts 218°
2026-05-07 16:33 43.88674 8.95908 37004 ft 397 kts 218°
2026-05-07 16:34 43.84161 8.91569 36992 ft 397 kts 218°
2026-05-07 16:34 43.79628 8.87222 37000 ft 396 kts 218°
2026-05-07 16:35 43.75091 8.82881 36999 ft 395 kts 218°
2026-05-07 16:35 43.70570 8.78553 36999 ft 395 kts 218°
2026-05-07 16:36 43.66073 8.74279 36989 ft 395 kts 216°
2026-05-07 16:36 43.60894 8.71494 37003 ft 408 kts 195°
2026-05-07 16:37 43.55169 8.71212 36995 ft 415 kts 187°
2026-05-07 16:37 43.52329 8.70773 36986 ft 400 kts 205°
2026-05-07 16:37 43.49869 8.69134 36963 ft 390 kts 217°
2026-05-07 16:38 43.45226 8.65320 36969 ft 391 kts 214°
2026-05-07 16:38 43.40498 8.61568 36968 ft 392 kts 214°
2026-05-07 16:39 43.35769 8.57814 36969 ft 392 kts 214°
2026-05-07 16:39 43.31388 8.53424 36973 ft 387 kts 225°
2026-05-07 16:40 43.27494 8.48412 36973 ft 385 kts 227°
2026-05-07 16:40 43.23608 8.43325 36981 ft 385 kts 226°
2026-05-07 16:41 43.19656 8.38382 36987 ft 386 kts 225°
2026-05-07 16:41 43.15640 8.33494 37002 ft 386 kts 225°
2026-05-07 16:42 43.11625 8.28619 36973 ft 385 kts 225°
2026-05-07 16:42 43.07640 8.23768 36987 ft 384 kts 225°
2026-05-07 16:43 43.03636 8.18904 36989 ft 384 kts 225°
2026-05-07 16:43 42.99647 8.14047 36991 ft 383 kts 225°
2026-05-07 16:44 42.95660 8.09198 36988 ft 383 kts 225°
2026-05-07 16:44 42.91695 8.04391 36981 ft 383 kts 224°
2026-05-07 16:45 42.87714 7.99578 36986 ft 382 kts 224°
2026-05-07 16:45 42.83726 7.94766 37001 ft 382 kts 224°
2026-05-07 16:46 42.79756 7.89978 36998 ft 382 kts 224°
2026-05-07 16:46 42.75763 7.85172 36991 ft 382 kts 224°
2026-05-07 16:47 42.71779 7.80398 36972 ft 381 kts 224°
2026-05-07 16:47 42.67821 7.75655 36980 ft 381 kts 224°
2026-05-07 16:48 42.63836 7.70883 36982 ft 380 kts 224°
2026-05-07 16:48 42.59888 7.66161 36982 ft 380 kts 224°
2026-05-07 16:49 42.55894 7.61405 36983 ft 380 kts 224°
2026-05-07 16:49 42.51939 7.56699 36995 ft 380 kts 223°
2026-05-07 16:50 42.47969 7.51983 36987 ft 381 kts 223°
2026-05-07 16:50 42.43981 7.47258 36984 ft 381 kts 223°
2026-05-07 16:51 42.39978 7.42517 36983 ft 381 kts 223°
2026-05-07 16:51 42.36276 7.37497 36952 ft 378 kts 242°
2026-05-07 16:51 42.35506 7.34118 36956 ft 381 kts 263°
2026-05-07 16:52 42.35859 7.30534 36950 ft 395 kts 285°
2026-05-07 16:52 42.37313 7.27309 36943 ft 415 kts 307°
2026-05-07 16:52 42.39696 7.24962 36960 ft 437 kts 329°
2026-05-07 16:52 42.42708 7.23898 36940 ft 458 kts 351°
2026-05-07 16:53 42.45939 7.24355 36980 ft 478 kts 13°
2026-05-07 16:53 42.48941 7.26284 36968 ft 492 kts 34°
2026-05-07 16:53 42.51409 7.29548 36976 ft 499 kts 54°
2026-05-07 16:54 42.54803 7.37820 36972 ft 503 kts 67°
2026-05-07 16:54 42.57474 7.46557 36968 ft 503 kts 75°
2026-05-07 16:54 42.58182 7.51169 36973 ft 495 kts 90°
2026-05-07 16:55 42.58072 7.55780 36969 ft 485 kts 106°
2026-05-07 16:55 42.57175 7.60126 36941 ft 472 kts 121°
2026-05-07 16:55 42.55620 7.63923 36939 ft 457 kts 135°
2026-05-07 16:55 42.53535 7.67099 36939 ft 443 kts 147°
2026-05-07 16:56 42.51113 7.69498 36939 ft 430 kts 160°
2026-05-07 16:56 42.48416 7.71137 36940 ft 417 kts 171°
2026-05-07 16:56 42.42851 7.72055 36941 ft 396 kts 192°
2026-05-07 16:57 42.37667 7.70127 36946 ft 382 kts 212°
2026-05-07 16:57 42.33498 7.65851 36935 ft 375 kts 229°
2026-05-07 16:58 42.29974 7.60688 36943 ft 376 kts 229°
2026-05-07 16:58 42.26404 7.55497 36961 ft 377 kts 228°
2026-05-07 16:59 42.22838 7.50302 36963 ft 377 kts 228°
2026-05-07 16:59 42.19265 7.45098 36966 ft 378 kts 228°
2026-05-07 17:00 42.15713 7.39924 36961 ft 378 kts 228°
2026-05-07 17:00 42.12136 7.34732 36965 ft 378 kts 228°
2026-05-07 17:01 42.08566 7.29562 36971 ft 378 kts 228°
2026-05-07 17:01 42.04985 7.24374 36974 ft 378 kts 228°
2026-05-07 17:02 42.01394 7.19179 36977 ft 378 kts 228°
2026-05-07 17:02 41.97823 7.14025 36979 ft 378 kts 228°
2026-05-07 17:03 41.94224 7.08841 36969 ft 378 kts 228°
2026-05-07 17:03 41.90645 7.03706 36976 ft 378 kts 228°
2026-05-07 17:04 41.87054 6.98555 36977 ft 378 kts 228°
2026-05-07 17:04 41.83460 6.93405 36979 ft 377 kts 228°
2026-05-07 17:05 41.79883 6.88290 36979 ft 377 kts 228°
2026-05-07 17:05 41.76285 6.83155 36993 ft 377 kts 227°
2026-05-07 17:06 41.72686 6.78028 36984 ft 377 kts 227°
2026-05-07 17:06 41.69113 6.72940 36984 ft 377 kts 227°
2026-05-07 17:07 41.65502 6.67821 36979 ft 377 kts 227°
2026-05-07 17:07 41.61899 6.62719 36979 ft 377 kts 227°
2026-05-07 17:08 41.58321 6.57660 36967 ft 376 kts 227°
2026-05-07 17:08 41.54722 6.52573 36973 ft 376 kts 227°
2026-05-07 17:09 41.51128 6.47491 36983 ft 376 kts 227°
2026-05-07 17:09 41.47529 6.42417 36988 ft 376 kts 227°
2026-05-07 17:10 41.43946 6.37386 36980 ft 376 kts 227°
2026-05-07 17:10 41.40326 6.32326 36976 ft 377 kts 227°
2026-05-07 17:11 41.36732 6.27298 36963 ft 376 kts 227°
2026-05-07 17:11 41.33119 6.22239 36969 ft 376 kts 226°
2026-05-07 17:12 41.29503 6.17180 36976 ft 376 kts 227°
2026-05-07 17:12 41.25908 6.12167 36980 ft 376 kts 226°
2026-05-07 17:13 41.22294 6.07150 36984 ft 376 kts 226°
2026-05-07 17:13 41.18664 6.02115 36948 ft 377 kts 226°
2026-05-07 17:14 41.15053 5.97111 36939 ft 376 kts 226°
2026-05-07 17:14 41.13239 5.94594 36402 ft 375 kts 226°
2026-05-07 17:14 41.11450 5.92116 35703 ft 376 kts 225°
2026-05-07 17:15 41.09641 5.89617 35000 ft 376 kts 225°
2026-05-07 17:15 41.07828 5.87114 34412 ft 374 kts 225°
2026-05-07 17:15 41.06034 5.84637 33928 ft 370 kts 224°
2026-05-07 17:15 41.04259 5.82189 33359 ft 366 kts 225°
2026-05-07 17:16 41.02492 5.79755 32757 ft 364 kts 225°
2026-05-07 17:16 41.00738 5.77346 32167 ft 362 kts 225°
2026-05-07 17:16 40.99012 5.74972 31599 ft 361 kts 225°
2026-05-07 17:16 40.97262 5.72573 30973 ft 361 kts 225°
2026-05-07 17:17 40.95528 5.70189 30406 ft 361 kts 226°
2026-05-07 17:17 40.93924 5.67632 29925 ft 358 kts 233°
2026-05-07 17:17 40.92492 5.64941 29335 ft 356 kts 233°
2026-05-07 17:17 40.91067 5.62264 28758 ft 355 kts 233°
2026-05-07 17:18 40.89643 5.59603 28187 ft 353 kts 233°
2026-05-07 17:18 40.88236 5.56980 27955 ft 353 kts 233°
2026-05-07 17:18 40.86808 5.54318 27942 ft 355 kts 233°
2026-05-07 17:18 40.85378 5.51651 27960 ft 356 kts 233°
2026-05-07 17:19 40.83956 5.48998 27767 ft 354 kts 233°
2026-05-07 17:19 40.82534 5.46351 27243 ft 352 kts 233°
2026-05-07 17:19 40.81133 5.43749 26716 ft 351 kts 233°
2026-05-07 17:19 40.79715 5.41120 26207 ft 350 kts 233°
2026-05-07 17:20 40.78303 5.38504 25687 ft 349 kts 233°
2026-05-07 17:20 40.76895 5.35896 25165 ft 349 kts 233°
2026-05-07 17:20 40.75490 5.33292 24678 ft 348 kts 233°
2026-05-07 17:20 40.74103 5.30726 24219 ft 347 kts 233°
2026-05-07 17:21 40.72683 5.28105 23731 ft 347 kts 233°
2026-05-07 17:21 40.71293 5.25542 23202 ft 346 kts 233°
2026-05-07 17:21 40.69884 5.22949 22665 ft 345 kts 233°
2026-05-07 17:21 40.69427 5.22110 22501 ft 345 kts 233°
2026-05-07 17:22 40.67971 5.19496 21982 ft 343 kts 232°
2026-05-07 17:22 40.66593 5.16969 21504 ft 342 kts 233°
2026-05-07 17:22 40.65216 5.14408 21060 ft 340 kts 233°
2026-05-07 17:22 40.63850 5.11860 20932 ft 341 kts 233°
2026-05-07 17:23 40.62938 5.10167 20949 ft 342 kts 233°
2026-05-07 17:23 40.61558 5.07619 20954 ft 342 kts 233°
2026-05-07 17:23 40.60172 5.05070 20951 ft 342 kts 233°
2026-05-07 17:23 40.58334 5.01691 20952 ft 342 kts 233°
2026-05-07 17:24 40.57411 4.99997 20953 ft 342 kts 233°
2026-05-07 17:24 40.56017 4.97443 20951 ft 342 kts 233°
2026-05-07 17:24 40.54624 4.94895 20963 ft 342 kts 233°
2026-05-07 17:24 40.53236 4.92360 20805 ft 340 kts 233°
2026-05-07 17:25 40.51850 4.89835 20684 ft 340 kts 233°
2026-05-07 17:25 40.50469 4.87317 20581 ft 341 kts 233°
2026-05-07 17:25 40.49101 4.84818 20450 ft 341 kts 233°
2026-05-07 17:25 40.47707 4.82277 20327 ft 340 kts 233°
2026-05-07 17:26 40.47255 4.81456 20286 ft 340 kts 233°
2026-05-07 17:26 40.46016 4.79215 20175 ft 340 kts 233°
2026-05-07 17:26 40.44623 4.76691 20052 ft 339 kts 233°
2026-05-07 17:26 40.43256 4.74208 19931 ft 339 kts 233°
2026-05-07 17:27 40.41878 4.71701 19812 ft 339 kts 233°
2026-05-07 17:27 40.40497 4.69185 19689 ft 339 kts 233°
2026-05-07 17:27 40.39116 4.66669 19569 ft 338 kts 233°
2026-05-07 17:27 40.37898 4.64457 19453 ft 338 kts 233°
2026-05-07 17:28 40.36520 4.61960 19335 ft 338 kts 233°
2026-05-07 17:28 40.35153 4.59481 19218 ft 338 kts 233°
2026-05-07 17:28 40.33762 4.56967 19099 ft 338 kts 233°
2026-05-07 17:28 40.32397 4.54503 18992 ft 337 kts 233°
2026-05-07 17:29 40.31013 4.52010 18868 ft 337 kts 233°
2026-05-07 17:29 40.29633 4.49529 18751 ft 336 kts 233°
2026-05-07 17:29 40.28253 4.47048 18634 ft 336 kts 233°
2026-05-07 17:29 40.26896 4.44605 18517 ft 335 kts 233°
2026-05-07 17:30 40.25527 4.42135 18404 ft 335 kts 233°
2026-05-07 17:30 40.24155 4.39664 18289 ft 335 kts 233°
2026-05-07 17:30 40.22780 4.37191 18135 ft 333 kts 233°
2026-05-07 17:30 40.21428 4.34765 17747 ft 330 kts 232°
2026-05-07 17:31 40.20072 4.32335 17279 ft 329 kts 233°
2026-05-07 17:31 40.18740 4.29952 16844 ft 328 kts 232°
2026-05-07 17:31 40.17399 4.27550 16422 ft 327 kts 232°
2026-05-07 17:31 40.16053 4.25141 15998 ft 327 kts 231°
2026-05-07 17:32 40.14710 4.22742 15592 ft 326 kts 231°
2026-05-07 17:32 40.13384 4.20377 15228 ft 326 kts 232°
2026-05-07 17:32 40.12042 4.17980 14879 ft 325 kts 231°
2026-05-07 17:32 40.10707 4.15595 14544 ft 325 kts 231°
2026-05-07 17:33 40.09376 4.13224 14210 ft 324 kts 231°
2026-05-07 17:33 40.08043 4.10850 13857 ft 323 kts 231°
2026-05-07 17:33 40.06715 4.08486 13452 ft 322 kts 231°
2026-05-07 17:33 40.05396 4.06137 13057 ft 320 kts 231°
2026-05-07 17:34 40.04098 4.03827 12657 ft 319 kts 231°
2026-05-07 17:34 40.02790 4.01500 12267 ft 317 kts 231°
2026-05-07 17:34 40.01489 3.99186 11873 ft 315 kts 231°
2026-05-07 17:34 40.00187 3.96883 11479 ft 314 kts 231°
2026-05-07 17:35 39.98889 3.94592 11078 ft 313 kts 231°
2026-05-07 17:35 39.97615 3.92342 10931 ft 311 kts 231°
2026-05-07 17:35 39.96325 3.90061 10945 ft 312 kts 231°
2026-05-07 17:35 39.95035 3.87780 10942 ft 313 kts 231°
2026-05-07 17:36 39.93742 3.85498 10942 ft 313 kts 231°
2026-05-07 17:36 39.92449 3.83215 10938 ft 313 kts 231°
2026-05-07 17:36 39.91155 3.80930 10939 ft 312 kts 231°
2026-05-07 17:36 39.89859 3.78648 10938 ft 313 kts 231°
2026-05-07 17:37 39.88566 3.76375 10937 ft 313 kts 231°
2026-05-07 17:37 39.87290 3.74132 10931 ft 313 kts 231°
2026-05-07 17:37 39.85995 3.71858 10938 ft 313 kts 231°
2026-05-07 17:37 39.84698 3.69582 10934 ft 313 kts 231°
2026-05-07 17:38 39.83402 3.67305 10939 ft 313 kts 231°
2026-05-07 17:38 39.82105 3.65027 10936 ft 313 kts 231°
2026-05-07 17:38 39.80810 3.62750 10937 ft 313 kts 231°
2026-05-07 17:38 39.79515 3.60473 10938 ft 313 kts 231°
2026-05-07 17:39 39.78218 3.58203 10928 ft 313 kts 231°
2026-05-07 17:39 39.76921 3.55938 10901 ft 312 kts 231°
2026-05-07 17:39 39.75634 3.53686 10521 ft 310 kts 231°
2026-05-07 17:39 39.74362 3.51461 10111 ft 309 kts 231°
2026-05-07 17:40 39.73081 3.49228 9843 ft 304 kts 231°
2026-05-07 17:40 39.71837 3.47054 9634 ft 296 kts 231°
2026-05-07 17:40 39.70613 3.44915 9269 ft 294 kts 231°
2026-05-07 17:40 39.69483 3.42704 8888 ft 294 kts 240°
2026-05-07 17:41 39.68576 3.40331 8480 ft 293 kts 242°
2026-05-07 17:41 39.67671 3.37968 8088 ft 292 kts 242°
2026-05-07 17:41 39.66764 3.35609 7721 ft 290 kts 242°
2026-05-07 17:41 39.65873 3.33296 7335 ft 289 kts 242°
2026-05-07 17:42 39.64973 3.30968 6958 ft 287 kts 242°
2026-05-07 17:42 39.64078 3.28658 6520 ft 287 kts 242°
2026-05-07 17:42 39.63186 3.26349 6174 ft 285 kts 242°
2026-05-07 17:42 39.62300 3.24056 5771 ft 282 kts 242°
2026-05-07 17:43 39.61421 3.21778 5376 ft 281 kts 241°
2026-05-07 17:43 39.60556 3.19540 4964 ft 280 kts 242°
2026-05-07 17:43 39.59679 3.17276 4533 ft 279 kts 241°
2026-05-07 17:43 39.58809 3.15035 4113 ft 278 kts 242°
2026-05-07 17:44 39.57944 3.12807 3696 ft 276 kts 242°
2026-05-07 17:44 39.57081 3.10587 3337 ft 273 kts 242°
2026-05-07 17:44 39.56240 3.08421 3017 ft 271 kts 241°
2026-05-07 17:44 39.55389 3.06229 2987 ft 272 kts 241°
2026-05-07 17:45 39.54532 3.04024 2998 ft 275 kts 242°
2026-05-07 17:45 39.53671 3.01808 2995 ft 275 kts 242°
2026-05-07 17:45 39.52814 2.99603 2995 ft 274 kts 242°
2026-05-07 17:45 39.51958 2.97401 2984 ft 272 kts 242°
2026-05-07 17:46 39.51100 2.95201 2985 ft 274 kts 242°
2026-05-07 17:46 39.50239 2.92996 2996 ft 274 kts 241°
2026-05-07 17:46 39.49378 2.90792 2984 ft 274 kts 242°
2026-05-07 17:46 39.48529 2.88617 3000 ft 272 kts 241°
2026-05-07 17:47 39.47669 2.86422 3005 ft 273 kts 241°
2026-05-07 17:47 39.46812 2.84240 2992 ft 272 kts 242°
2026-05-07 17:47 39.45948 2.82040 3006 ft 274 kts 242°
2026-05-07 17:47 39.45085 2.79841 3008 ft 274 kts 242°
2026-05-07 17:48 39.44218 2.77628 3010 ft 276 kts 242°
2026-05-07 17:48 39.43526 2.75326 3008 ft 274 kts 256°
2026-05-07 17:48 39.43240 2.72892 3009 ft 274 kts 263°
2026-05-07 17:48 39.43023 2.70462 2993 ft 264 kts 263°
2026-05-07 17:49 39.42819 2.68205 2840 ft 243 kts 263°
2026-05-07 17:49 39.42628 2.66094 2446 ft 236 kts 264°
2026-05-07 17:49 39.42436 2.63991 2065 ft 232 kts 264°
2026-05-07 17:49 39.42249 2.61924 2005 ft 232 kts 264°
2026-05-07 17:50 39.42063 2.59852 2004 ft 232 kts 264°
2026-05-07 17:50 39.41856 2.57798 2006 ft 229 kts 267°
2026-05-07 17:50 39.42119 2.55881 1998 ft 211 kts 302°
2026-05-07 17:50 39.43068 2.54525 2002 ft 200 kts 330°
2026-05-07 17:51 39.44317 2.53877 2006 ft 193 kts 356°
2026-05-07 17:51 39.45631 2.53964 2008 ft 188 kts 19°
2026-05-07 17:51 39.46775 2.54732 2012 ft 185 kts 43°
2026-05-07 17:51 39.47576 2.56030 2015 ft 184 kts 59°
2026-05-07 17:52 39.48236 2.57421 2009 ft 183 kts 59°
2026-05-07 17:52 39.48905 2.58829 2010 ft 183 kts 59°
2026-05-07 17:52 39.49572 2.60233 1909 ft 183 kts 59°
2026-05-07 17:52 39.50243 2.61645 1716 ft 183 kts 58°
2026-05-07 17:53 39.50896 2.63020 1501 ft 172 kts 59°
2026-05-07 17:53 39.51497 2.64287 1271 ft 161 kts 58°
2026-05-07 17:53 39.52063 2.65480 1048 ft 149 kts 57°
2026-05-07 17:53 39.52582 2.66573 858 ft 138 kts 57°
2026-05-07 17:54 39.53083 2.67629 677 ft 135 kts 58°
2026-05-07 17:54 39.53564 2.68635 552 ft 134 kts 57°
2026-05-07 17:54 39.54066 2.69667 330 ft 134 kts 57°
2026-05-07 17:54 39.54545 2.70706 137 ft 134 kts 59°
2026-05-07 17:55 39.55017 2.71702 49 ft 118 kts 59°
2026-05-07 17:55 39.55378 2.72471 38 ft 76 kts 58°
2026-05-07 17:55 39.55567 2.72869 38 ft 37 kts 58°
2026-05-07 17:55 39.55690 2.73129 38 ft 28 kts 59°
2026-05-07 17:56 39.55715 2.73316 38 ft 13 kts 92°
2026-05-07 17:56 39.55721 2.73431 38 ft 9 kts 88°
2026-05-07 17:56 39.55712 2.73522 38 ft 11 kts 116°
2026-05-07 17:56 39.55684 2.73540 38 ft 2 kts 198°
2026-05-07 17:57 39.55682 2.73539 38 ft 0 kts 200°
2026-05-07 17:57 39.55649 2.73513 38 ft 9 kts 201°
2026-05-07 17:58 39.55581 2.73532 38 ft 18 kts 150°
2026-05-07 17:58 39.55443 2.73641 38 ft 19 kts 150°
2026-05-07 17:58 39.55330 2.73730 38 ft 16 kts 148°
2026-05-07 17:58 39.55242 2.73798 38 ft 12 kts 149°
2026-05-07 17:59 39.55182 2.73810 38 ft 7 kts 217°
2026-05-07 17:59 39.55150 2.73779 38 ft 5 kts 190°
2026-05-07 17:59 39.55120 2.73791 38 ft 4 kts 155°
2026-05-07 17:59 39.55101 2.73786 38 ft 2 kts 212°
2026-05-07 18:00 39.55091 2.73770 38 ft 2 kts 234°
2026-05-07 18:00 39.55081 2.73749 37 ft 6 kts 238°
2026-05-07 18:00 39.55063 2.73709 38 ft 2 kts 239°
2026-05-07 18:00 39.55058 2.73699 38 ft 1 kts 239°
2026-05-07 18:01 39.55055 2.73693 38 ft 0 kts 239°
2026-05-07 18:01 39.55055 2.73691 38 ft 0 kts 239°